Theta_e
354 354 353 353 354 353 353 353 353 353 352 353 353 353 353 352 352 352 352 350 351 352 353 353 353 351 349 349 350 350 350 351 352 352 351 351 350 352 350 342 340 342 340 341 344 343 344 347 350 350 349 348 348 350 353 352 348 346 344 340 343 342 341 340 335 336 340 339 340 341 341 342 342 342 342 341 340 340 344 347 347 347 347 347 346
354 354 354 354 354 353 353 353 353 353 352 352 352 352 352 352 352 352 352 351 351 351 352 352 351 350 347 348 350 351 350 351 351 351 351 351 352 353 352 346 340 340 341 341 343 344 344 345 347 349 348 348 348 348 349 348 345 347 345 343 346 342 341 341 333 335 340 339 340 341 341 341 340 341 342 341 341 342 345 347 346 346 347 347 346
355 355 354 354 353 354 353 354 353 353 353 353 352 352 352 352 351 352 352 352 351 350 352 352 351 350 350 350 351 350 351 350 350 351 351 351 353 352 349 345 341 340 341 342 343 345 346 346 348 349 348 348 348 348 348 346 345 348 348 347 345 340 341 338 331 337 341 338 340 342 342 341 339 341 342 341 342 343 344 345 343 343 344 344 344
353 354 355 354 354 355 354 354 354 353 353 353 353 352 353 352 352 353 352 352 352 351 352 352 352 352 352 352 351 352 352 352 352 352 352 350 352 351 346 338 339 340 341 343 345 346 346 349 350 350 349 348 348 348 348 348 346 347 349 347 343 341 344 338 332 341 343 339 343 343 340 340 341 342 341 341 342 343 343 342 342 342 342 341 342
350 353 355 355 355 356 356 356 355 354 354 354 354 354 353 353 353 353 353 353 353 353 352 352 352 352 352 352 352 353 353 354 353 353 353 351 350 353 349 340 338 340 342 344 345 346 347 349 350 350 350 349 347 347 349 350 348 348 349 347 343 343 345 342 336 340 342 341 344 344 340 341 341 340 340 340 341 342 342 341 341 341 341 341 339
351 355 356 356 356 355 356 357 356 355 355 355 354 354 354 354 354 354 354 353 354 354 353 352 352 352 352 352 353 353 353 354 351 350 352 350 349 351 352 348 343 339 343 344 345 347 346 347 349 349 350 349 347 348 349 349 348 348 349 346 345 343 343 345 342 339 341 343 343 343 343 343 342 340 341 341 341 342 341 341 340 340 341 340 338
354 356 357 357 356 357 358 358 357 357 356 355 355 355 355 355 355 354 354 354 353 354 354 351 352 352 353 354 353 354 354 352 346 346 350 350 348 349 352 352 348 341 342 344 344 346 345 345 347 348 350 349 347 349 348 349 349 349 349 346 347 345 339 341 345 339 336 339 343 343 343 344 343 342 343 342 342 342 341 340 340 339 341 340 338
354 355 357 358 357 358 359 359 359 357 357 357 356 356 356 356 355 354 354 354 354 353 354 352 351 353 352 353 355 354 353 349 341 342 349 352 350 350 350 353 352 345 343 344 343 344 344 345 347 348 350 349 348 349 348 350 351 350 349 345 346 346 333 332 344 342 334 336 340 343 343 343 342 343 343 343 343 342 341 340 340 339 339 338 338
355 355 359 359 357 358 359 361 359 357 358 357 356 356 355 355 355 353 354 355 354 353 353 352 351 352 352 352 354 354 352 350 345 341 345 350 352 352 350 353 355 347 341 343 341 342 343 344 347 348 349 350 348 349 350 349 349 350 349 344 344 345 332 326 341 346 339 339 337 337 342 343 341 342 343 344 344 342 342 340 339 339 337 337 336
352 356 360 359 358 359 359 362 360 358 358 358 357 357 355 355 354 352 352 352 353 353 353 354 353 351 352 351 351 352 351 351 352 347 344 347 351 353 353 354 355 348 340 343 341 338 340 343 346 347 348 349 348 349 351 349 347 346 348 346 343 347 338 323 335 346 344 345 338 329 334 339 340 341 341 342 343 343 342 341 339 338 338 337 336
351 355 360 359 359 360 360 362 361 358 359 359 358 358 356 353 349 347 347 348 351 352 353 354 353 350 351 351 349 348 347 347 351 354 353 348 345 349 352 353 352 347 343 345 343 338 340 342 346 347 348 350 349 349 349 349 349 345 346 348 344 346 344 326 328 343 345 347 344 331 331 337 339 341 340 340 342 342 342 340 339 339 338 339 337
353 356 359 361 360 360 361 362 362 360 360 360 359 359 357 350 345 344 343 343 347 349 351 352 351 349 349 350 347 343 342 341 345 354 357 351 342 339 345 348 347 345 345 348 346 341 339 341 344 344 346 349 349 349 348 347 352 349 349 352 345 345 348 334 322 334 343 347 346 338 336 341 341 341 341 341 341 342 342 340 338 339 339 339 339
355 359 360 361 361 361 361 362 363 361 360 361 361 360 358 351 343 342 341 340 341 344 348 349 348 348 347 347 346 341 338 338 339 348 352 349 342 338 340 344 344 343 344 346 347 345 340 339 342 343 345 348 348 349 348 345 350 351 350 351 346 343 347 339 321 323 336 344 346 344 341 342 342 340 341 342 342 341 341 341 340 340 339 338 338
356 360 360 362 362 361 361 363 363 362 360 362 361 361 361 354 345 340 338 338 339 340 343 343 344 347 345 344 344 338 335 336 336 342 347 345 342 341 341 344 344 341 340 341 344 349 348 340 338 340 342 344 345 347 348 345 346 350 351 351 348 345 347 344 329 320 329 339 344 346 344 343 344 341 338 338 340 341 341 341 342 341 340 339 338
354 358 360 361 362 362 362 362 364 364 361 362 362 362 362 356 345 339 339 337 337 338 338 339 341 342 342 344 342 336 334 336 334 338 343 342 341 342 341 344 348 346 341 338 340 350 355 351 342 337 340 342 344 345 346 345 345 347 350 350 350 348 348 348 339 325 324 333 339 344 345 345 344 343 339 336 336 340 340 340 341 342 341 338 338
350 355 359 360 363 363 363 363 364 365 363 362 362 362 361 356 346 339 338 337 336 337 337 337 338 337 340 342 339 335 334 335 335 336 338 340 341 342 339 339 345 350 348 343 339 342 351 354 348 339 339 342 343 345 344 342 343 346 349 348 348 351 349 348 345 335 325 328 334 338 341 344 344 343 342 339 337 337 339 338 340 341 343 340 338
346 351 358 361 363 364 363 363 364 365 364 362 361 361 358 352 347 341 338 338 337 337 337 337 336 336 339 339 336 336 337 336 336 336 337 340 341 341 340 337 337 345 350 350 345 340 340 346 346 340 340 343 343 345 343 341 341 344 348 349 347 350 350 347 347 342 331 329 334 336 334 337 344 345 341 341 340 337 338 339 339 339 341 341 340
345 351 359 361 362 365 364 363 364 365 365 363 360 360 357 350 345 340 337 337 337 337 337 337 337 337 337 337 336 338 337 337 338 338 338 341 341 339 340 341 338 338 344 350 352 347 338 338 340 338 339 342 343 346 346 344 344 343 345 348 347 348 350 347 346 345 339 333 335 339 336 331 339 344 340 339 341 337 333 336 338 338 338 339 341
345 352 358 361 361 363 365 363 365 365 365 364 360 360 359 353 346 340 337 335 337 337 338 338 338 337 337 337 337 337 338 338 338 339 340 339 341 340 339 341 341 339 339 342 350 352 343 337 339 337 337 339 340 343 345 345 346 345 344 347 348 346 349 349 345 344 345 340 335 338 340 334 334 340 340 337 338 335 329 332 336 335 334 335 339
345 352 357 361 361 362 364 364 364 365 366 365 363 361 361 357 350 343 339 336 336 336 337 338 338 338 338 338 337 337 338 338 338 339 340 338 337 340 341 342 342 342 342 340 342 347 346 341 339 338 338 340 340 341 345 345 345 346 344 345 348 346 348 351 346 341 344 344 336 331 333 334 333 336 339 337 337 333 327 330 336 335 332 330 332
346 350 355 359 360 361 363 363 362 364 366 366 364 362 362 361 355 346 341 340 339 337 336 337 338 337 338 337 337 337 337 337 338 337 338 338 337 338 340 344 346 345 346 346 341 341 343 342 341 341 341 341 342 339 341 344 344 345 343 343 347 346 345 349 347 343 344 346 343 332 326 328 329 331 333 336 339 336 328 328 333 336 334 332 329
347 349 352 356 360 360 361 363 362 363 365 365 364 364 362 363 360 353 348 342 339 337 335 335 336 337 337 337 336 337 337 336 337 337 337 338 339 338 338 343 348 347 344 346 345 339 339 339 341 345 343 340 343 341 339 341 343 342 341 340 343 344 344 345 344 345 345 345 346 339 328 325 325 323 324 330 338 341 335 331 333 335 338 339 335
346 346 347 350 356 360 359 362 361 361 364 365 364 364 362 362 361 359 355 345 338 336 333 333 336 336 335 337 336 336 337 337 337 338 339 339 341 342 340 341 346 350 347 344 343 341 339 338 338 343 342 339 341 341 339 341 343 340 338 338 341 343 345 344 342 343 344 345 346 342 334 330 326 322 320 322 331 340 342 337 336 338 339 341 341
345 347 346 347 352 358 359 361 361 360 363 364 364 364 363 362 361 361 357 349 344 344 337 331 332 335 335 336 336 337 337 338 339 340 340 343 347 348 346 341 340 348 352 347 342 341 341 338 336 338 339 338 338 338 338 340 342 342 339 337 339 341 343 343 342 341 343 344 344 342 339 336 334 328 323 319 321 330 340 340 338 338 339 339 343
347 348 347 347 351 357 358 359 361 360 361 363 363 363 363 361 361 360 359 355 352 352 346 334 328 332 334 335 336 337 338 337 339 341 342 345 352 355 352 346 339 342 353 354 347 342 343 341 337 335 337 336 336 336 337 338 341 344 344 338 336 338 340 342 342 341 342 343 343 341 339 339 340 338 333 328 322 321 328 335 336 337 338 335 338
352 351 351 350 351 357 357 357 359 360 361 361 363 363 362 361 361 359 360 359 357 355 350 339 331 331 332 334 335 335 337 337 338 342 346 349 354 356 357 355 346 339 347 356 354 346 342 342 339 337 335 336 336 336 335 336 338 342 344 341 337 337 338 339 341 341 341 342 342 341 340 339 340 340 339 337 332 325 321 324 328 332 335 334 333
352 351 351 350 351 356 358 358 359 361 360 360 361 362 361 362 362 360 360 360 359 358 354 344 337 335 333 331 333 334 334 335 336 338 345 351 354 355 356 358 356 348 345 353 358 353 345 342 341 340 337 335 335 335 335 336 336 338 340 339 338 337 337 338 339 340 341 342 343 342 342 341 340 338 339 340 340 336 328 323 321 324 329 334 334
353 354 354 354 353 355 359 361 360 359 360 360 360 361 360 361 361 361 360 360 360 360 357 351 344 340 337 333 332 333 332 333 336 336 338 345 351 354 355 357 360 357 349 349 356 358 354 346 342 341 339 337 336 335 334 335 335 336 337 338 337 337 337 338 338 338 340 342 345 345 343 342 341 338 338 339 340 340 337 331 324 320 323 328 333
355 355 353 351 348 348 355 361 361 358 359 361 359 359 360 360 362 361 360 359 360 360 359 357 351 344 341 338 335 336 335 334 336 337 336 338 344 350 353 356 359 360 357 353 353 357 359 355 347 342 341 340 338 336 334 333 333 335 336 337 336 335 336 338 338 338 338 340 346 350 350 346 342 338 337 338 340 339 340 338 334 327 322 322 327
348 351 350 346 344 343 345 352 358 359 359 360 359 358 360 359 361 360 360 359 359 360 360 360 356 349 345 343 339 338 339 338 337 338 338 336 338 343 348 353 357 359 359 357 354 355 360 360 355 347 341 341 340 338 335 334 333 333 333 335 335 333 334 336 337 338 338 339 343 350 353 351 345 341 338 337 339 339 340 340 340 335 329 323 322
340 346 349 350 353 353 348 345 348 352 358 359 359 359 359 359 359 359 359 359 359 360 360 359 359 356 351 347 343 340 339 341 340 340 340 339 339 340 344 349 354 356 356 357 357 355 356 359 361 355 345 340 342 339 337 335 334 333 332 333 333 333 333 333 335 337 337 338 340 344 351 353 350 346 342 338 338 340 340 341 341 341 338 332 324
335 341 347 349 353 356 356 352 348 348 353 356 357 359 359 358 358 358 358 358 359 361 361 360 359 359 357 352 349 346 342 341 341 340 341 342 341 341 343 346 349 350 350 354 355 352 350 353 359 361 353 342 341 342 340 337 335 334 334 334 334 334 334 333 334 336 337 337 337 341 347 351 351 348 345 342 339 340 341 341 342 343 343 341 335
335 339 346 348 348 349 355 361 359 354 352 352 354 357 358 357 357 358 358 357 358 360 361 361 361 360 358 355 353 350 348 345 343 342 342 341 341 342 342 343 345 346 346 349 350 347 345 344 350 359 360 352 344 342 342 342 341 339 337 337 338 338 337 336 334 335 338 339 338 337 342 348 351 349 346 344 343 342 341 342 343 344 345 344 342
335 336 339 348 351 347 345 352 358 357 355 355 354 355 357 358 356 356 358 357 357 359 361 361 360 359 357 355 353 353 351 349 348 346 345 344 342 342 342 342 345 346 346 347 346 344 345 344 344 351 358 358 354 348 344 344 343 344 343 342 343 342 342 341 339 337 338 340 340 338 337 341 347 348 346 345 345 343 342 343 343 344 346 345 344
334 335 340 348 354 351 347 347 351 354 356 356 357 357 358 358 357 356 357 357 355 357 359 360 360 358 356 354 352 352 353 353 352 349 348 346 344 343 344 345 347 348 347 346 345 344 345 345 345 346 352 356 358 355 350 345 344 344 345 345 345 345 345 344 345 344 342 342 342 342 340 339 342 345 343 343 343 341 341 343 343 344 345 346 345
344 352 353 352 348 346 347 346 344 347 353 355 355 358 358 358 357 356 357 356 355 355 358 360 359 357 354 353 350 352 353 353 352 350 348 346 345 345 344 347 349 352 351 350 348 347 348 349 349 348 348 351 354 354 352 349 345 345 344 344 345 345 346 346 346 347 347 345 345 346 346 344 343 343 342 340 339 339 338 340 342 343 343 346 346
349 356 352 343 335 332 333 333 331 335 345 351 354 356 358 358 358 356 356 357 356 354 355 358 359 357 354 353 351 351 352 351 349 349 347 345 346 347 347 347 348 351 355 357 357 355 354 353 352 351 349 349 351 353 353 349 348 346 345 345 345 345 346 347 346 347 347 347 347 348 350 350 348 345 343 339 336 336 337 338 340 342 343 345 347
350 351 343 334 329 328 328 329 328 329 337 346 352 355 357 359 358 356 357 358 357 353 352 355 358 357 355 353 351 349 349 348 347 345 345 346 349 349 349 349 348 350 356 360 362 362 358 355 353 352 350 350 350 350 350 348 348 347 346 345 345 346 346 346 346 347 347 348 348 350 352 353 351 348 344 341 337 335 335 337 339 342 344 344 346
344 341 337 332 328 327 327 327 329 329 331 341 351 355 356 359 358 357 356 357 357 354 353 353 356 357 356 355 352 350 348 347 347 347 348 349 349 350 350 351 350 351 352 356 360 362 363 360 357 354 355 355 354 352 351 351 351 350 349 347 347 348 348 346 346 347 347 347 349 352 353 353 351 349 346 344 342 339 336 335 338 344 346 345 346
347 344 338 332 328 328 331 339 342 338 337 344 351 355 355 357 358 357 356 356 358 358 356 354 355 357 357 357 355 352 350 349 349 349 349 349 348 349 350 350 350 351 354 356 359 362 363 364 362 362 362 360 357 355 354 353 353 353 352 350 350 349 348 347 346 346 348 348 350 353 355 353 352 351 346 344 345 344 340 335 336 342 345 345 346
347 346 338 335 338 335 335 345 349 345 345 351 353 354 356 356 357 359 357 357 358 359 358 357 358 359 358 356 354 352 349 349 349 348 347 348 347 349 352 353 355 358 360 360 361 362 363 363 364 365 366 365 361 359 357 355 355 354 353 353 354 352 350 351 350 350 349 349 350 353 353 352 353 352 348 344 346 346 343 338 336 339 343 345 347
341 337 334 340 349 348 346 352 351 344 348 356 356 355 357 357 358 359 359 359 360 360 360 361 359 357 357 355 353 350 350 349 350 351 351 351 351 354 359 361 362 363 364 363 363 364 363 363 363 364 364 365 365 364 363 361 360 359 357 357 356 355 354 355 355 353 352 349 349 351 350 351 354 354 349 345 344 346 346 341 337 340 343 346 347
352 350 347 351 358 360 359 361 358 351 349 356 359 359 358 359 360 360 359 359 361 362 362 363 360 356 357 358 356 355 354 352 354 355 355 355 355 357 361 363 362 363 364 365 365 364 363 362 363 362 362 363 363 363 364 363 363 362 361 360 359 358 357 357 356 355 353 352 352 353 352 353 355 354 351 347 343 345 346 343 341 344 345 346 347
361 360 358 358 362 362 359 359 360 358 356 358 361 360 359 361 363 362 359 360 363 365 366 365 361 357 357 360 361 361 360 359 358 356 355 357 360 360 361 361 361 362 364 364 364 364 363 363 362 362 362 362 362 362 362 362 362 362 362 361 360 360 358 358 357 356 355 355 357 357 356 356 355 355 354 351 347 344 344 343 344 346 346 347 348
361 359 359 359 361 360 358 357 360 363 363 364 364 363 364 365 366 365 364 364 365 365 363 361 358 354 355 359 364 364 365 365 362 359 358 360 362 364 363 361 360 362 363 363 363 363 362 362 362 362 362 362 362 361 361 361 361 361 361 361 361 360 360 359 359 358 357 357 358 357 358 358 357 356 355 354 350 346 343 345 346 346 347 348 349
358 357 358 358 359 359 358 358 360 362 364 366 366 366 366 366 366 365 364 363 362 360 357 358 359 357 356 359 362 363 363 364 363 363 362 363 364 364 363 362 362 363 363 363 363 363 362 362 362 362 362 362 361 361 361 361 361 361 361 361 361 361 361 360 360 359 358 358 357 357 358 358 357 357 356 355 352 348 346 348 349 348 348 349 349
358 357 357 358 358 357 357 357 358 359 360 362 363 364 364 363 362 362 360 360 360 359 358 360 363 362 360 361 362 362 362 364 365 364 364 363 364 363 363 363 364 363 363 363 362 362 362 362 362 361 361 362 362 361 361 362 362 361 362 362 361 362 361 361 362 361 360 359 358 358 357 357 357 357 356 356 354 350 348 350 351 350 349 349 348
356 356 357 358 357 356 356 356 356 356 357 358 359 360 360 360 360 361 360 360 361 361 361 362 364 364 364 364 364 364 364 365 364 364 363 363 364 363 363 363 362 362 363 363 363 363 363 363 362 362 362 362 362 363 362 362 361 361 361 361 362 362 362 362 362 361 361 360 360 359 358 357 357 357 356 356 356 353 350 350 351 349 349 349 348
354 355 355 355 355 354 354 354 354 355 355 356 357 358 358 360 361 363 363 362 363 364 365 365 365 365 364 364 363 364 364 363 363 362 361 362 363 362 362 363 363 363 363 363 363 363 363 363 363 362 363 363 363 363 363 362 362 362 361 359 359 358 359 360 362 362 362 361 360 359 359 357 357 357 356 356 355 354 350 349 349 349 348 347 346
354 353 353 353 353 352 352 352 352 353 353 354 355 355 357 358 359 361 362 362 363 364 363 363 363 363 362 363 363 363 363 363 362 362 362 363 363 363 362 362 362 362 362 362 362 362 362 362 362 361 359 357 354 351 350 349 349 349 348 348 347 346 345 348 352 354 357 359 359 358 358 358 357 357 356 355 354 354 351 348 348 348 347 345 345
351 351 351 351 350 350 350 350 350 350 350 351 352 352 353 355 356 357 358 359 359 358 357 357 358 358 358 359 359 360 360 360 360 361 361 358 357 359 361 361 361 361 359 358 356 356 355 354 351 347 343 339 336 334 333 333 333 333 332 333 334 333 333 335 336 338 342 348 354 357 357 357 356 355 355 354 353 354 351 348 347 347 346 344 344
Wind_Speed
27 30 31 31 30 29 28 27 28 29 28 28 28 28 28 28 27 26 27 26 27 25 21 20 20 21 23 22 20 19 18 18 18 18 16 15 15 15 16 17 17 16 15 14 13 12 11 10 8 7 6 5 5 4 4 4 3 2 2 2 2 3 1 1 2 3 4 3 3 2 1 1 1 1 1 2 3 3 2 2 2 2 2 2 2
26 29 31 31 30 30 29 28 29 30 30 30 30 30 29 29 28 28 28 28 28 26 22 22 23 23 24 23 20 19 18 18 18 18 17 16 16 17 17 17 18 17 15 15 14 12 12 11 9 8 7 6 5 5 4 4 3 2 1 1 2 2 1 1 4 6 5 4 5 3 2 3 2 2 2 3 4 3 3 4 4 4 4 3 3
26 30 32 32 31 32 31 29 30 31 30 30 30 30 30 30 30 29 28 29 29 27 24 22 23 23 22 21 21 19 18 19 18 17 17 16 16 19 20 18 17 17 16 15 14 12 12 11 9 8 7 6 6 5 4 4 2 2 1 1 1 1 1 2 6 7 3 2 5 5 4 5 4 3 4 4 4 4 4 5 4 4 4 4 4
27 30 32 33 32 32 32 31 31 31 31 31 31 31 31 32 32 30 29 29 29 29 27 23 23 24 22 21 21 19 18 19 18 17 18 18 17 19 21 20 19 17 16 15 14 13 12 11 9 8 7 7 6 5 4 3 3 3 2 2 3 3 2 2 5 6 4 4 5 3 3 5 6 6 6 5 4 4 5 5 5 5 4 5 5
30 32 33 34 34 34 33 32 32 33 33 33 33 33 33 33 34 32 30 30 29 30 29 26 24 24 23 22 21 20 19 19 20 20 19 20 19 18 19 20 21 19 17 16 15 13 12 11 10 9 8 7 7 6 5 4 4 4 3 3 4 4 3 3 4 5 6 7 7 4 3 3 4 7 7 5 4 4 5 5 5 5 4 5 4
30 33 35 35 35 34 33 33 33 34 34 35 34 34 33 33 34 33 31 31 30 30 31 28 24 24 23 22 23 23 22 22 23 22 21 21 21 19 18 19 20 20 18 17 15 14 13 12 11 10 9 8 7 7 5 5 5 4 3 3 4 5 6 5 4 5 7 9 8 6 5 3 4 5 5 4 5 5 5 4 4 5 4 4 5
30 31 34 35 35 35 35 35 34 35 35 35 35 34 34 34 35 34 32 31 30 30 32 30 24 23 23 23 23 24 24 25 25 23 22 21 20 19 18 18 19 19 19 18 16 16 14 12 12 11 10 9 8 8 6 5 6 5 5 5 5 6 8 7 5 5 7 8 6 5 3 0 0 4 4 4 5 5 4 4 4 5 4 3 4
33 34 34 35 36 37 38 38 36 35 35 35 36 36 36 36 36 36 33 31 31 30 30 30 26 23 24 25 25 24 24 26 27 25 21 19 19 19 18 18 18 19 19 19 18 17 15 14 13 12 11 11 9 9 7 7 7 6 7 7 6 6 7 8 8 5 5 6 6 6 4 3 3 4 2 3 4 4 5 4 4 5 4 3 4
32 34 36 36 37 39 39 39 38 35 36 37 38 37 38 38 37 36 34 31 30 30 28 29 27 24 24 26 26 25 25 24 25 26 24 20 19 19 19 18 19 19 18 19 19 18 16 15 13 13 12 12 11 9 8 8 8 7 7 7 7 6 6 9 11 8 6 5 7 9 7 5 5 4 3 4 3 4 5 6 6 5 4 4 4
31 32 35 37 38 38 38 37 37 36 36 37 37 37 38 39 38 38 36 32 29 29 28 27 27 25 24 26 27 27 26 25 23 24 25 23 21 20 20 20 20 19 17 19 20 19 17 16 15 14 13 13 12 11 10 9 9 9 9 8 7 7 7 9 11 10 9 6 7 10 10 8 6 5 5 5 4 4 4 6 8 9 7 6 6
32 31 32 34 36 36 36 36 36 36 35 36 36 37 38 39 40 40 39 35 31 29 29 27 28 27 25 25 28 28 28 28 24 21 23 25 25 24 23 23 23 21 19 20 21 20 19 17 16 14 14 14 13 13 11 10 9 9 9 9 8 8 7 9 11 11 11 8 8 9 10 9 7 7 6 6 6 5 5 7 7 8 7 8 8
31 30 30 32 33 34 36 36 37 36 34 36 37 37 39 41 42 41 40 39 35 32 30 29 29 29 28 27 28 29 30 30 28 24 23 25 27 27 26 25 25 23 21 20 21 21 20 19 17 16 15 14 14 14 13 12 11 10 10 9 8 8 8 10 12 13 12 11 10 9 9 9 8 8 7 7 8 7 7 9 5 3 4 6 7
29 29 30 32 34 35 37 37 38 38 37 37 37 37 39 41 42 42 42 41 40 37 34 32 32 30 30 30 30 31 31 31 31 28 26 26 26 27 28 27 26 26 25 23 21 21 21 20 19 18 17 16 15 14 13 13 13 12 11 10 8 9 10 10 12 13 13 12 11 10 9 9 9 9 8 7 8 9 8 8 6 4 5 6 6
28 29 30 32 35 36 38 39 40 41 40 39 39 38 39 41 42 43 43 42 42 42 39 38 36 33 32 32 32 34 33 32 33 31 29 28 26 27 28 27 27 28 27 26 23 21 21 21 20 19 19 18 16 15 14 14 15 13 12 11 9 8 9 11 11 12 13 13 12 11 11 10 9 9 9 9 8 8 9 9 7 6 6 7 7
25 28 31 32 35 37 37 39 40 41 42 41 40 40 40 42 44 44 44 44 43 44 43 42 40 36 34 32 33 36 35 34 35 33 32 32 30 29 29 27 26 26 27 27 25 23 22 21 21 20 20 20 18 17 16 15 16 15 14 13 11 9 10 11 12 13 14 14 14 14 13 11 11 10 9 9 9 8 9 9 9 8 8 7 8
24 26 30 32 35 37 37 39 40 41 42 42 42 43 43 44 46 45 45 45 45 45 45 44 42 41 38 34 35 38 37 35 36 35 34 34 33 32 31 30 27 25 25 27 27 25 24 23 23 21 20 21 20 19 19 18 18 17 16 15 13 11 11 12 13 13 14 14 14 15 14 13 12 11 10 9 9 9 9 9 10 9 9 9 8
25 28 31 32 34 36 37 38 39 40 42 44 45 46 46 47 47 47 46 45 46 46 45 45 44 43 41 39 39 39 38 38 37 37 36 35 34 33 32 31 30 28 25 25 26 28 27 26 26 23 21 21 21 20 20 20 19 19 18 17 16 14 13 13 13 14 15 15 15 16 16 14 13 13 13 11 11 12 11 10 10 10 10 9 8
26 30 31 32 34 36 37 37 39 41 43 46 47 47 47 48 48 48 47 47 47 47 46 46 45 45 44 42 41 40 40 39 38 37 37 35 35 35 34 32 32 31 29 26 25 27 29 28 27 26 24 22 21 20 20 20 20 20 20 19 18 16 16 15 14 14 15 16 16 16 17 16 15 15 14 13 13 14 13 12 12 11 12 11 9
27 30 31 32 34 36 38 38 39 41 43 45 46 46 46 47 48 47 47 47 47 47 47 47 46 46 45 44 43 42 41 40 40 39 38 37 37 36 35 34 32 32 32 30 28 27 29 29 28 28 27 25 23 22 21 21 21 21 21 21 20 19 19 17 16 15 16 17 18 18 18 17 16 15 15 14 15 16 14 13 13 13 14 14 12
30 30 30 32 35 37 39 39 40 40 41 42 43 44 44 45 47 47 47 47 47 48 48 48 48 47 47 46 44 43 43 42 41 41 40 40 39 37 36 35 33 32 32 32 32 31 30 29 29 29 28 26 25 24 22 22 22 23 23 22 22 22 20 18 18 18 17 18 19 19 20 19 18 17 16 16 16 16 15 13 14 14 15 16 15
27 28 29 32 34 36 38 38 37 37 38 39 40 42 43 42 44 46 46 46 47 48 49 49 49 49 48 47 46 45 44 43 43 42 42 41 40 39 37 35 33 33 32 31 32 33 33 32 30 30 29 28 28 27 25 24 24 24 24 24 24 25 23 21 21 20 19 19 20 20 21 20 20 19 18 17 16 17 16 15 15 15 15 16 16
25 26 27 29 32 34 35 34 34 34 36 38 39 41 41 41 42 44 44 46 47 48 49 49 49 50 49 48 47 46 45 44 44 43 43 42 41 40 38 36 34 33 33 32 32 33 34 34 33 31 30 30 30 29 28 26 25 25 26 25 25 26 26 25 25 22 20 19 20 21 21 21 21 21 20 19 17 17 17 16 17 16 16 16 16
24 24 23 25 28 29 30 32 33 34 36 37 38 40 42 42 41 41 43 45 46 47 48 49 49 50 50 49 48 47 46 45 44 44 43 42 41 40 39 38 36 34 34 34 34 34 34 35 35 33 33 32 31 31 30 28 27 28 27 27 26 27 27 28 27 25 22 21 20 20 20 21 22 22 22 21 19 18 18 18 18 18 17 17 17
23 22 23 25 26 26 28 31 34 34 35 37 38 39 41 42 41 41 43 44 44 44 46 48 48 49 49 49 49 48 47 46 45 45 44 42 40 39 39 40 39 35 33 34 35 34 34 36 36 35 35 34 33 33 32 30 28 28 29 29 28 28 29 29 28 27 25 24 23 22 21 21 22 23 23 22 22 21 21 20 20 20 20 18 18
19 18 20 21 23 25 28 31 35 36 35 36 38 38 38 41 42 42 42 42 42 42 44 47 47 47 48 49 49 49 49 48 47 45 44 42 39 36 36 39 41 39 34 32 35 36 35 36 37 36 36 36 36 35 35 33 30 28 29 30 30 30 30 30 29 29 28 27 27 26 24 23 23 24 24 24 24 24 23 23 22 22 22 21 20
15 15 17 19 22 27 31 33 35 35 34 35 36 36 37 38 41 42 41 41 41 41 43 45 45 46 48 49 49 50 49 48 48 46 43 41 38 35 34 35 39 41 37 33 34 37 37 37 37 37 37 37 37 37 37 36 34 31 30 31 31 31 31 32 31 30 30 30 29 29 28 26 25 26 27 26 25 25 25 25 25 24 24 23 22
12 15 17 19 20 23 28 31 31 30 31 33 34 34 35 36 38 39 38 39 40 41 43 45 45 45 47 48 48 49 49 48 48 46 44 41 39 37 35 33 34 38 39 35 33 36 38 38 38 38 38 38 38 38 39 38 37 36 34 33 33 32 33 33 33 32 32 31 32 31 31 30 29 29 28 29 28 27 26 26 27 26 26 25 24
11 13 14 16 17 19 22 26 27 28 30 32 32 33 34 35 36 36 36 37 39 41 43 45 45 45 46 47 47 46 46 46 46 46 45 43 41 38 36 35 33 34 38 37 34 34 36 39 39 38 38 38 39 40 41 40 40 39 38 36 35 35 34 35 35 35 34 33 33 33 33 33 33 32 31 31 30 29 28 27 27 28 28 27 25
11 13 15 15 16 18 21 24 26 27 29 30 31 32 34 34 34 35 35 35 37 40 42 43 46 47 46 46 45 44 44 45 46 46 46 45 44 41 39 37 35 35 36 36 35 34 34 37 40 39 39 39 40 41 42 43 42 41 40 39 38 38 37 36 37 37 36 35 34 32 33 35 35 34 33 33 33 32 30 29 28 28 29 29 28
13 13 14 14 14 14 17 21 25 26 29 30 30 31 33 33 32 33 34 34 35 39 41 42 45 48 48 47 46 44 43 44 45 46 46 45 45 45 43 40 39 38 36 36 36 35 34 35 38 40 40 40 41 43 44 44 44 43 42 42 41 41 40 39 39 39 39 38 36 34 33 35 36 36 35 34 34 33 32 30 28 28 28 29 30
12 12 12 12 12 13 13 15 19 24 28 30 31 31 31 31 31 32 33 33 33 36 40 43 44 46 48 48 48 46 45 44 45 46 46 45 45 46 45 43 41 41 39 38 38 37 36 34 35 39 41 41 42 44 44 44 44 44 44 43 43 44 43 43 42 42 41 41 39 37 35 35 37 37 37 36 36 35 34 31 29 29 28 28 29
8 8 8 8 9 11 12 12 14 19 25 29 31 30 30 31 31 31 31 32 32 34 38 42 42 43 46 48 49 48 47 46 46 46 47 46 45 46 46 45 45 45 43 41 40 41 41 38 36 37 41 43 42 42 44 44 44 44 44 44 44 44 45 45 44 44 44 43 42 40 38 36 37 39 39 39 38 37 36 33 30 29 30 29 28
9 9 8 7 6 7 9 11 13 15 20 25 29 30 32 32 31 30 30 32 33 33 35 39 42 43 45 47 47 48 48 47 47 47 47 46 46 46 47 48 48 47 46 45 44 45 45 44 41 38 39 43 44 44 43 43 43 43 42 42 43 44 45 46 46 45 45 44 44 43 41 39 38 40 41 41 40 39 37 35 32 29 31 31 29
12 11 9 6 5 5 5 8 11 13 15 20 25 28 31 31 30 31 32 33 34 33 34 38 41 44 45 46 46 46 46 46 46 46 46 46 46 46 47 48 47 47 47 48 48 47 47 47 46 43 41 41 43 45 45 44 43 43 42 42 42 43 45 46 46 46 45 45 46 45 45 43 40 40 42 41 40 40 38 37 35 32 32 33 32
13 12 9 7 6 7 7 6 8 11 13 18 22 24 26 28 31 32 33 34 35 34 35 37 41 43 45 45 45 45 44 44 44 44 44 44 45 45 46 46 46 46 47 48 48 48 48 47 47 47 45 43 43 45 46 47 46 44 44 43 43 44 45 46 46 46 46 46 46 46 46 45 43 43 44 43 42 41 41 39 37 35 33 34 36
8 5 7 9 10 11 10 9 9 10 11 15 19 22 25 27 29 31 33 34 35 36 36 38 40 43 44 45 45 44 43 43 42 41 41 41 42 44 44 44 43 43 44 45 46 47 47 47 47 47 47 47 46 45 46 48 47 45 44 44 45 45 46 47 47 48 47 47 48 48 47 46 44 44 45 45 44 43 43 42 40 38 36 35 37
5 5 11 17 20 21 19 17 15 13 11 13 16 20 24 26 28 30 32 33 35 38 39 39 41 43 43 42 43 42 42 42 41 40 40 39 40 41 42 42 42 42 40 39 40 42 43 44 45 46 47 48 46 45 47 48 48 46 45 45 46 46 47 48 49 49 50 50 50 49 47 45 45 45 46 48 47 44 45 44 43 41 38 36 37
8 12 18 21 23 23 21 18 17 16 13 13 15 19 24 26 28 29 31 32 35 38 40 41 41 41 40 40 40 40 41 40 40 39 38 38 38 39 40 40 41 41 38 35 33 35 37 40 42 43 44 45 45 46 47 47 48 47 46 45 46 47 48 49 49 50 51 52 52 50 47 45 43 44 47 49 49 47 47 46 45 42 39 38 38
12 16 18 20 22 22 20 18 18 18 15 13 16 19 22 26 27 28 30 33 35 37 39 41 40 39 38 38 37 38 39 39 39 38 38 37 37 37 37 38 38 39 38 36 33 33 34 36 38 40 40 41 42 43 44 45 46 46 46 45 45 47 49 50 51 51 52 53 52 48 46 47 47 45 46 47 48 49 48 48 47 42 37 39 40
10 13 16 19 20 19 16 13 14 16 15 13 16 19 22 25 26 27 30 32 33 33 35 37 37 36 35 36 36 36 37 36 36 36 35 35 35 35 35 35 35 35 34 34 33 32 32 32 32 33 34 37 40 41 42 43 44 44 44 44 45 47 49 50 52 52 52 54 51 44 43 47 49 49 49 49 48 48 46 47 49 45 40 39 36
8 11 16 15 14 15 14 12 13 16 13 12 16 19 21 24 26 27 28 28 29 30 31 32 33 33 33 34 34 34 34 33 32 32 32 32 33 33 32 32 31 30 30 30 30 29 30 30 29 29 30 32 36 38 40 41 42 43 44 44 45 47 48 49 51 51 52 53 51 46 46 49 48 48 52 53 51 48 45 45 49 50 46 38 32
12 15 16 11 9 11 11 10 15 17 13 13 16 19 20 22 24 26 24 23 23 26 27 28 30 30 30 30 31 31 31 30 29 29 29 30 31 29 28 27 26 26 26 27 27 27 26 27 27 28 29 31 33 34 36 38 40 41 42 43 45 46 45 45 47 49 52 55 54 53 53 51 48 47 51 53 53 51 48 46 47 49 45 37 33
8 9 8 6 6 5 5 6 9 11 13 15 16 18 19 20 21 22 21 19 20 22 24 25 26 27 26 26 27 27 28 27 27 27 27 27 28 27 25 25 25 24 24 24 25 25 24 24 25 27 28 30 31 31 32 35 37 39 40 41 43 43 43 44 45 46 50 53 51 51 51 49 47 48 50 50 51 51 51 49 46 45 43 38 35
2 1 1 2 3 3 5 5 4 5 10 13 15 16 18 17 17 18 18 18 18 19 20 21 22 22 22 22 22 22 23 23 23 24 25 24 23 23 23 24 24 22 22 23 23 23 22 23 25 26 26 26 28 28 29 31 35 37 38 40 41 41 42 45 45 46 48 46 40 38 41 44 46 47 48 49 49 51 52 51 47 44 42 39 34
2 1 2 2 2 2 2 3 5 5 7 10 12 15 17 16 15 16 17 18 18 17 17 17 17 18 18 19 19 19 19 19 19 20 21 21 20 19 19 20 19 18 20 22 21 21 22 23 24 25 25 24 25 27 28 30 33 36 37 39 40 40 41 43 44 45 46 45 41 37 36 39 42 43 45 48 49 51 52 52 49 45 43 40 37
2 2 3 4 4 5 5 6 6 6 7 10 11 13 15 14 12 14 17 17 16 16 16 15 14 15 16 17 18 17 16 16 16 16 16 17 17 17 17 16 16 17 19 20 19 19 21 22 24 25 24 24 24 26 27 28 30 34 36 37 38 38 38 40 42 43 43 44 46 45 42 41 41 42 44 46 48 49 50 51 49 46 44 43 42
4 4 3 4 6 7 7 7 7 7 8 10 11 12 12 12 11 13 14 14 14 14 14 14 13 13 14 15 16 16 15 15 15 14 13 13 13 14 16 16 16 17 17 17 18 18 19 20 21 22 22 23 24 24 24 25 26 29 31 33 36 38 39 40 43 44 43 42 43 45 48 48 47 46 45 45 47 49 50 51 51 50 48 47 46
4 4 4 5 6 8 8 8 8 8 8 9 11 11 10 10 11 10 10 10 12 12 12 13 12 12 13 14 14 14 14 14 13 13 12 12 11 12 14 14 15 17 18 17 17 17 17 18 19 19 20 21 21 21 22 21 22 23 25 27 31 35 37 40 43 46 46 45 42 44 49 53 53 51 48 46 48 50 51 51 53 53 52 50 48
5 6 6 7 7 8 9 8 9 9 9 9 10 10 10 11 12 13 12 12 13 14 14 14 13 12 12 13 13 14 14 12 12 13 14 15 15 15 15 14 15 18 20 19 18 18 17 17 17 18 20 22 23 24 25 25 27 29 30 31 33 34 36 39 42 44 46 48 48 49 53 56 57 58 56 53 53 54 54 53 54 55 54 52 51
8 8 8 8 9 9 10 10 9 10 11 11 11 11 11 11 12 14 15 15 16 16 15 14 13 12 12 12 12 14 13 12 12 12 13 16 17 17 17 16 16 17 18 18 19 20 20 21 21 22 24 26 27 28 29 32 34 36 38 39 41 42 42 43 45 45 46 50 53 56 59 61 62 63 63 61 60 61 59 57 57 57 55 52 52
9 9 10 10 10 10 10 10 9 9 10 11 11 11 12 12 11 12 13 14 16 15 14 13 12 14 15 13 12 14 14 12 12 12 11 11 13 15 16 15 15 15 15 16 18 19 20 21 21 20 20 20 22 23 25 28 30 32 34 37 40 43 45 48 49 47 46 49 55 59 63 66 66 66 66 65 65 65 63 60 60 61 58 54 52
Wind_Direction
189 184 184 183 185 184 184 185 188 190 192 194 194 193 193 192 192 192 191 191 195 197 194 192 194 198 200 199 201 204 206 206 206 205 204 207 206 208 220 223 219 220 217 216 220 223 222 224 228 234 236 240 247 237 227 240 259 284 318 341 41 83 40 22 110 133 151 169 172 159 159 151 127 101 122 171 166 167 171 136 110 101 120 141 116
192 183 184 184 185 184 184 184 186 189 191 193 194 194 195 194 194 195 192 191 195 198 195 193 196 199 199 198 198 202 205 205 208 209 205 206 208 207 214 220 221 222 219 217 219 221 222 222 225 231 232 234 237 233 236 245 258 280 300 26 70 111 120 135 133 128 121 142 156 160 180 157 133 138 142 143 149 143 135 136 133 132 133 127 115
195 185 184 184 185 183 183 184 186 188 189 191 192 194 194 194 195 196 194 193 194 197 196 193 196 197 197 198 197 200 207 206 206 209 207 207 212 213 215 217 220 223 220 218 218 218 220 219 222 228 228 228 230 229 233 240 254 254 221 126 146 130 160 190 155 143 127 160 166 160 172 159 135 139 148 143 146 140 136 137 129 125 128 114 99
198 191 185 183 184 184 184 184 184 186 187 190 190 192 194 194 194 195 195 194 194 197 198 195 194 196 197 199 198 197 205 208 205 207 208 206 210 221 223 220 222 223 220 219 218 218 218 216 218 222 225 225 222 225 225 227 246 236 199 148 160 149 154 194 171 158 152 163 171 172 177 164 149 151 152 144 142 142 140 140 136 131 128 113 102
200 192 185 183 184 185 185 184 183 185 186 189 190 191 193 193 194 195 195 194 194 197 199 195 193 196 198 199 199 198 203 208 206 206 209 206 206 218 224 223 223 223 220 220 217 218 218 216 218 217 221 223 219 224 220 216 234 230 202 170 169 168 160 178 187 183 179 166 164 182 184 140 123 142 148 142 139 148 143 139 143 139 134 129 134
203 193 184 183 184 184 185 185 184 186 187 188 190 191 191 192 193 194 195 195 194 196 199 197 194 195 197 196 198 199 201 206 207 206 208 209 206 211 218 223 225 222 220 221 219 219 219 216 219 217 218 222 218 220 217 217 224 209 187 184 189 190 173 169 188 195 201 185 169 174 171 72 57 121 142 146 146 153 151 150 156 148 144 140 141
201 198 188 183 183 184 185 186 187 186 187 188 188 190 191 191 193 194 195 196 194 196 200 200 196 196 197 196 198 200 201 207 212 208 207 212 210 208 213 220 225 223 219 222 222 222 223 219 220 219 218 221 220 220 216 216 219 196 182 188 196 204 189 177 186 199 207 198 183 184 189 322 88 142 140 152 157 164 171 175 172 156 147 130 131
195 196 190 185 183 185 187 187 188 187 186 186 187 190 192 192 194 194 194 196 196 196 201 201 198 197 198 198 200 202 205 210 216 212 206 210 210 208 210 214 223 225 220 222 225 224 224 221 220 219 218 220 221 222 218 216 221 204 194 200 200 210 207 181 176 196 205 196 196 198 209 240 205 163 159 178 172 174 183 187 180 171 167 164 153
198 194 188 187 186 187 188 188 188 187 186 188 189 191 194 194 195 196 194 196 198 198 200 201 200 199 201 201 202 204 208 211 216 217 210 206 207 208 208 208 219 227 222 223 227 225 224 222 220 220 218 220 220 220 219 219 227 222 217 225 208 202 214 185 171 183 193 200 219 203 193 213 206 196 214 206 196 189 187 183 178 188 200 193 184
201 199 189 186 189 188 188 188 187 188 188 189 189 190 194 197 198 200 198 197 199 199 199 200 200 201 203 205 205 206 209 209 211 218 216 211 207 207 206 205 215 225 221 222 229 228 226 222 220 221 219 221 220 216 218 221 227 233 239 247 223 199 214 198 177 184 189 195 230 209 187 191 194 203 215 205 207 204 204 199 179 185 200 197 201
198 200 193 188 190 189 187 188 188 188 188 187 188 189 194 201 204 206 205 202 201 201 201 201 201 203 205 207 210 210 212 212 210 211 215 215 214 213 211 210 216 223 221 220 227 229 227 224 220 221 220 221 220 215 216 220 225 233 238 243 232 208 212 210 191 191 194 191 212 206 184 183 189 195 204 205 209 197 213 228 193 178 197 192 195
196 195 193 190 189 189 188 188 188 188 188 187 188 190 195 205 209 209 210 208 206 206 204 204 206 207 207 208 213 215 217 219 216 209 211 218 221 221 219 218 221 225 223 221 225 227 226 224 221 221 220 219 220 217 215 217 218 225 227 227 230 215 210 217 204 198 201 197 202 204 187 187 196 199 199 207 212 199 210 236 225 179 198 192 192
196 191 191 190 189 190 189 188 188 187 189 189 189 190 195 205 211 212 213 213 212 213 210 210 212 211 210 211 215 219 221 223 222 217 216 222 225 224 223 223 224 226 226 224 226 228 228 225 221 222 222 220 220 217 214 215 215 221 225 221 227 223 213 219 215 206 207 203 201 206 202 199 203 206 202 201 207 205 210 229 234 213 206 204 203
195 191 190 191 190 191 190 189 189 188 189 190 190 190 193 202 211 215 216 217 216 217 217 218 217 213 214 215 217 221 223 223 225 223 221 225 226 226 225 224 226 229 229 228 226 225 228 231 227 223 225 224 222 221 218 218 218 220 226 227 231 229 216 218 221 214 210 208 203 205 209 208 207 209 208 200 198 207 211 214 222 220 212 212 205
197 195 192 192 191 191 191 190 189 190 189 190 190 190 193 203 212 216 217 218 218 218 220 220 219 218 218 217 218 224 226 225 226 226 225 227 227 228 228 226 225 229 232 233 228 221 220 228 232 229 227 228 226 225 223 223 224 222 224 231 232 226 219 219 222 220 215 212 209 206 207 212 210 206 209 207 200 205 213 212 215 220 217 215 209
196 202 197 193 192 190 192 192 191 191 190 190 192 191 195 205 213 216 218 219 219 219 220 220 222 222 220 219 221 225 227 226 227 227 227 228 228 230 233 230 225 225 230 235 234 229 221 222 231 233 229 229 229 228 228 230 230 227 224 230 231 222 223 224 220 221 221 217 216 212 208 210 214 208 205 211 209 205 210 214 213 215 216 216 214
193 204 200 192 192 191 192 193 192 192 191 192 195 195 200 207 212 216 218 219 220 220 220 221 222 222 222 223 225 226 226 226 226 228 228 228 230 231 233 233 230 226 226 231 235 236 232 227 231 235 232 230 231 230 233 232 230 229 226 228 230 221 222 228 222 222 225 221 220 221 216 210 212 214 208 207 214 210 205 210 214 213 214 216 218
198 203 198 191 192 192 193 194 194 194 194 195 198 199 202 208 213 216 217 218 220 220 220 221 221 222 224 225 225 225 226 226 226 228 229 229 230 232 233 233 233 231 227 227 230 235 238 235 234 236 235 233 232 229 230 230 227 228 227 229 232 226 222 228 226 222 225 225 221 223 226 219 212 217 217 209 216 220 212 209 213 212 212 216 221
201 200 194 190 192 193 194 196 196 197 196 197 200 199 201 207 212 217 219 219 220 220 220 221 222 223 224 225 225 225 226 226 227 228 229 230 231 232 234 233 233 233 231 229 227 230 237 237 236 237 237 236 235 231 229 229 226 226 226 227 230 229 225 226 232 229 224 226 225 222 225 227 219 218 222 217 219 227 224 215 214 214 214 214 215
199 196 193 191 193 194 195 197 197 197 196 195 197 198 200 205 210 215 219 220 220 220 221 221 222 223 224 225 226 226 226 226 227 227 228 231 232 232 233 234 233 233 233 233 231 230 233 235 235 236 235 234 234 233 229 228 227 226 227 228 228 231 228 223 232 236 227 226 231 229 227 230 227 220 222 222 223 231 231 221 216 218 220 220 215
197 194 195 194 195 196 197 197 197 196 195 194 195 198 199 201 207 213 216 217 219 220 222 222 222 223 224 225 226 227 227 227 228 228 228 230 232 233 233 233 233 233 232 232 234 233 233 234 236 235 235 233 233 234 232 229 229 228 229 229 229 233 233 228 231 234 229 226 232 237 235 233 233 228 225 223 223 232 235 225 220 222 223 225 223
198 196 198 198 197 197 196 196 195 195 196 195 195 197 196 198 204 209 211 215 218 220 222 223 223 223 224 225 226 227 227 227 227 228 228 229 231 233 233 232 232 234 234 232 233 236 235 235 235 235 235 234 232 234 235 233 232 233 233 232 230 234 237 236 235 233 228 226 229 238 240 237 238 237 233 227 219 224 232 227 222 223 222 222 226
202 200 198 204 203 197 194 193 194 196 197 197 196 196 196 198 201 203 207 213 217 218 222 223 223 224 225 225 226 227 227 227 226 227 228 228 228 231 232 233 232 232 235 235 234 235 237 236 235 235 237 236 233 234 235 234 235 237 238 235 233 234 237 239 240 237 232 227 227 235 239 238 240 242 240 235 225 219 224 226 222 221 220 218 223
202 201 198 205 203 194 192 193 195 197 197 198 198 198 197 197 198 201 205 211 213 213 219 223 223 224 225 226 226 227 227 227 226 226 227 227 226 228 232 234 233 231 231 235 236 235 236 237 236 235 236 238 236 236 235 234 234 237 240 238 235 235 238 241 244 243 238 233 231 236 240 239 241 245 245 241 235 226 222 223 224 222 222 219 218
190 196 195 197 193 189 192 195 197 199 199 199 200 199 199 197 197 200 203 207 207 207 214 222 223 223 225 226 226 226 227 227 226 225 226 226 223 223 228 233 235 232 228 230 236 236 235 237 237 235 235 237 238 238 238 235 233 234 238 240 238 237 240 242 244 245 243 240 238 240 244 242 240 243 246 244 241 236 229 227 227 225 227 226 220
176 187 189 191 190 190 195 197 199 200 199 201 201 201 202 200 199 200 200 202 203 203 210 220 223 222 222 224 225 226 226 227 227 226 225 224 222 219 222 227 233 234 229 225 231 237 237 236 237 236 235 235 237 239 240 238 235 234 236 240 240 239 241 243 244 245 245 245 244 243 245 245 242 241 244 245 244 241 236 233 232 229 229 230 227
180 188 190 191 191 191 194 197 199 199 200 203 203 203 204 203 202 201 199 199 200 201 207 217 221 221 221 224 225 225 226 226 228 227 224 223 221 219 218 220 227 233 231 224 224 233 239 238 237 237 236 236 236 238 240 240 238 237 237 239 241 241 241 243 244 245 245 246 247 247 246 246 245 244 244 245 245 243 240 237 237 235 231 230 229
178 181 185 187 189 191 193 196 198 201 202 203 204 204 204 205 204 202 200 199 199 200 205 213 219 220 222 224 225 225 226 226 226 228 226 224 222 219 218 217 219 227 232 229 222 225 235 240 240 238 238 237 237 237 239 240 240 240 239 240 242 242 242 243 244 245 245 244 244 246 247 247 248 248 247 246 245 244 243 240 239 238 235 232 229
162 167 173 177 183 190 195 198 200 202 203 203 205 206 205 205 204 203 203 201 200 200 202 208 216 220 222 225 226 226 226 226 225 226 228 227 224 222 220 218 217 221 227 230 226 222 227 237 242 242 240 239 239 239 239 240 240 240 241 242 243 244 243 244 245 246 245 244 240 240 243 246 249 250 249 248 247 247 245 243 241 239 237 235 232
154 163 169 171 179 190 198 202 202 203 202 203 205 206 206 206 204 203 204 203 202 203 203 205 213 220 222 225 227 227 227 227 226 226 228 228 226 225 224 221 220 221 224 228 229 224 221 228 239 243 243 240 240 241 240 241 241 242 242 243 244 245 245 245 245 246 246 245 241 237 237 243 249 250 250 249 249 248 248 246 245 243 239 237 235
160 165 169 172 180 189 199 208 210 207 203 203 205 205 205 205 204 204 203 202 203 205 205 207 211 217 221 224 226 227 227 228 227 227 228 229 227 226 226 224 223 223 225 227 229 229 225 223 229 239 245 244 241 242 243 243 243 243 244 245 246 247 247 247 247 247 246 246 244 240 236 239 245 249 250 250 250 249 249 247 245 244 243 242 239
186 177 177 181 189 197 205 215 218 212 207 206 205 204 203 204 204 203 202 202 202 204 206 208 210 214 219 223 226 227 228 228 228 228 228 229 229 228 227 226 226 228 229 228 229 232 233 229 224 230 241 246 245 243 243 244 244 245 245 246 247 248 249 249 249 248 248 247 247 244 238 236 241 246 248 250 251 250 250 249 246 243 244 244 242
209 202 206 216 218 211 209 211 213 214 213 210 207 205 204 203 203 201 200 202 203 203 206 209 210 213 219 223 226 228 229 229 230 230 230 230 230 230 230 229 229 231 232 231 232 235 238 238 233 228 233 242 246 246 244 244 244 246 246 246 247 248 250 251 251 251 250 250 249 247 242 237 237 242 246 249 250 251 251 251 247 243 242 243 242
227 226 229 231 231 233 236 228 219 217 215 210 208 209 207 203 201 200 200 202 203 203 206 210 212 215 220 224 227 229 230 230 231 231 231 232 232 233 233 232 232 232 233 234 236 238 239 241 240 235 232 236 242 245 247 246 245 245 246 246 246 247 249 251 253 253 252 252 251 251 248 243 238 239 243 246 248 250 250 250 248 243 240 241 241
250 252 246 235 242 259 274 268 233 216 212 210 208 207 205 203 201 201 200 201 203 203 206 211 215 217 221 225 228 230 230 230 231 232 233 234 235 235 235 234 232 234 236 238 239 241 241 242 243 241 238 237 239 243 247 249 248 246 246 246 246 246 247 249 251 253 253 253 253 252 251 248 243 241 243 244 246 250 251 250 248 245 241 239 239
256 254 227 235 263 281 285 277 255 229 214 212 211 205 202 203 202 201 201 201 203 204 206 211 216 219 221 225 228 228 229 230 232 234 235 236 236 237 237 235 233 233 237 240 242 243 243 243 244 245 245 243 242 243 247 250 251 250 248 248 247 246 246 247 248 250 252 253 253 252 250 249 246 243 244 245 246 249 252 251 249 247 243 240 241
265 259 252 264 281 288 287 281 273 257 229 216 213 207 202 201 201 201 201 201 202 206 208 211 217 221 223 225 227 228 229 231 232 234 236 237 236 237 238 237 236 234 233 236 239 242 243 244 245 247 248 249 247 246 248 251 252 252 250 249 249 248 247 246 246 247 249 250 252 250 247 246 245 245 246 247 246 246 247 249 249 247 243 241 241
247 255 264 274 282 286 286 282 276 269 249 222 211 207 202 200 200 200 200 199 203 208 211 212 217 221 224 226 228 229 230 232 234 235 236 236 236 236 237 237 238 236 232 230 231 236 242 245 247 249 250 251 251 250 251 252 253 254 252 250 249 249 249 249 248 247 248 248 250 249 245 243 242 244 246 247 246 244 243 244 245 243 240 239 238
254 262 268 273 276 280 283 280 274 272 261 227 207 205 203 200 199 199 200 201 204 208 212 214 217 221 225 226 228 231 232 233 234 234 235 235 235 236 237 238 239 239 237 234 230 232 237 242 248 251 250 250 251 252 253 254 253 253 253 252 251 249 249 250 250 249 248 248 248 247 245 245 244 243 243 245 246 243 239 240 242 238 235 235 234
270 276 275 274 275 276 276 274 269 267 255 223 204 202 202 202 200 199 201 204 204 206 212 216 217 219 223 225 228 231 232 233 234 234 235 236 238 238 238 240 241 241 240 237 232 230 233 237 242 245 246 248 252 254 254 254 255 254 254 253 251 249 249 250 250 250 249 248 247 244 245 247 246 243 242 243 245 241 237 238 239 236 233 233 229
269 277 277 277 275 271 263 249 247 249 235 206 198 199 200 202 201 199 201 203 203 205 210 214 215 217 221 225 229 233 235 235 236 238 238 238 239 238 236 237 237 235 234 234 232 229 231 235 238 239 240 245 250 253 255 257 257 258 258 255 251 251 251 250 250 251 251 250 248 246 246 247 246 243 242 242 242 240 237 237 237 237 236 232 222
281 281 277 269 262 265 257 241 244 242 219 193 195 198 197 198 199 199 200 199 200 202 206 211 215 218 220 225 230 233 236 236 235 235 236 235 235 233 228 226 227 226 227 231 231 229 232 237 240 241 242 244 246 249 253 257 258 259 259 257 255 255 253 250 250 252 253 252 251 250 250 248 244 241 241 241 241 239 237 237 236 234 233 229 220
303 297 276 247 237 243 229 228 243 234 206 190 189 190 190 193 196 197 195 192 194 197 199 206 215 218 217 220 223 227 230 231 229 229 230 232 232 229 223 222 225 225 226 228 230 230 234 239 242 244 246 247 249 249 251 254 256 257 259 260 260 259 257 253 252 254 255 254 253 252 250 247 243 240 240 241 239 237 236 237 234 229 229 226 219
40 17 214 195 201 215 220 217 210 197 191 185 182 182 182 183 188 190 188 186 185 186 189 196 208 213 211 209 211 214 218 220 222 226 227 227 226 225 223 227 230 228 227 229 232 234 237 241 244 246 247 248 251 253 254 256 259 260 261 261 262 262 259 256 256 258 258 254 252 251 249 246 244 243 243 242 238 236 236 235 230 225 224 221 212
113 113 103 114 137 160 180 160 135 139 163 169 171 173 170 170 175 175 173 174 175 179 187 195 203 210 207 200 198 200 203 206 212 220 223 220 219 219 221 226 227 226 227 231 233 236 239 241 245 249 252 252 254 256 257 259 262 264 265 265 265 265 263 259 258 260 260 256 253 251 247 246 247 246 244 241 237 235 235 232 227 223 219 214 208
128 120 99 99 103 104 111 121 119 125 140 148 157 164 164 166 171 171 172 175 178 184 190 189 189 195 194 190 191 194 197 199 201 206 210 210 211 214 218 221 221 223 228 232 233 235 239 242 247 252 256 259 259 259 259 261 264 267 268 269 269 268 265 263 262 262 262 260 257 253 248 248 249 247 244 241 237 235 233 229 225 221 216 211 207
139 127 113 111 110 114 124 128 124 125 135 141 147 158 163 162 164 169 175 176 176 179 179 173 171 177 180 182 185 188 190 191 190 191 196 201 205 210 214 217 221 225 230 234 236 236 239 243 249 254 259 263 264 265 265 265 267 269 269 270 270 269 267 264 262 261 260 259 258 257 254 251 250 248 247 245 241 236 230 226 223 219 214 210 208
154 134 130 128 123 125 131 135 132 131 134 137 139 143 144 143 145 155 162 162 159 159 157 155 157 161 165 170 176 176 176 179 180 181 188 196 204 211 215 216 221 225 227 230 233 237 242 247 251 255 259 262 265 267 268 268 267 269 272 271 270 270 269 265 263 262 262 260 257 256 254 251 249 247 246 244 239 232 226 223 221 218 212 208 206
166 154 148 138 127 124 128 130 128 127 127 125 124 122 121 124 132 138 141 143 142 141 142 145 146 149 152 158 165 166 165 169 172 176 188 196 198 201 203 205 213 221 225 227 230 234 237 242 248 254 259 266 270 272 273 273 270 271 275 277 276 276 275 272 269 268 267 262 255 249 247 247 245 243 242 239 232 226 223 220 219 216 210 205 201
163 160 154 143 132 126 124 122 121 120 119 116 113 113 112 115 125 132 134 134 133 132 134 136 135 138 141 142 150 155 156 157 161 168 186 199 202 202 200 200 209 220 226 231 236 241 247 252 257 262 267 274 279 279 277 276 275 275 277 278 279 279 278 276 274 272 270 263 253 245 244 243 241 239 237 234 229 224 220 217 214 211 207 201 197
160 152 144 137 132 126 120 115 113 110 109 108 108 109 109 111 115 120 122 125 125 125 126 127 131 141 145 141 140 145 149 155 161 169 182 195 206 212 212 213 223 232 238 243 246 249 254 257 260 264 268 273 279 281 281 282 283 284 283 281 280 279 276 274 273 270 266 261 253 246 243 241 237 234 232 230 227 223 219 214 209 206 203 199 195